User: anonymous
Location: Oshawa
(43.9000°N, 78.8670°W)
Time: 00:02:39
(UTC-04:00)
Language:

Cosmos 2333 Rocket - Orbit

View from above orbital plane
View from above orbital plane
View from above satellite
View from above satellite

Ground track
Ground track

The orbit data is extracted from the following two-line orbital elements,

1 24298U 96051B   14257.44969556 -.00000161  00000-0 -60637-4 0  5412
2 24298 070.8652 023.9777 0018189 243.2900 183.0219 14.12462970929670
Epoch (UTC): 14 September 2014 10:47:33
Eccentricity: 0.0018189
inclination: 70.8652°
perigee height: 838 km
apogee height: 864 km
right ascension of ascending node: 23.9777°
argument of perigee: 243.2900°
revolutions per day: 14.12462970
mean anomaly at epoch: 183.0219°
orbit number at epoch: 92967

The dashed part of the orbit path shows where the satellite is in the earth's shadow,  

DLR